Vorticity
nan nan nan nan nan nan nan nan nan nan nan nan nan nan nan nan nan nan nan nan nan nan nan nan nan nan nan nan nan nan nan nan nan nan nan nan nan nan nan nan nan nan nan nan nan nan nan nan nan nan nan nan nan nan nan nan nan nan nan nan nan nan nan nan nan nan nan nan nan nan nan nan nan nan nan nan nan nan nan nan nan nan nan nan nan nan nan nan nan nan nan nan nan nan nan nan nan nan nan nan nan nan nan
nan 5 5 6 6 6 6 6 6 6 6 6 6 6 6 6 5 6 6 6 6 5 5 4 5 5 5 6 6 7 7 7 7 7 7 7 7 7 7 8 8 8 8 7 6 6 14 18 12 7 9 11 11 8 4 3 5 5 8 9 5 3 -0 -2 1 3 2 2 2 3 8 15 20 22 19 16 13 11 10 8 6 5 5 6 7 7 5 5 5 5 6 6 6 7 8 7 6 5 4 4 4 5 nan
nan 4 5 5 6 6 6 6 6 6 6 6 6 6 6 6 6 6 6 6 6 5 5 5 5 5 5 6 6 6 6 6 6 6 6 6 7 7 8 8 8 8 8 6 6 8 14 16 14 11 11 10 9 6 3 5 6 7 11 10 5 3 0 0 3 4 4 3 2 2 4 9 14 19 21 21 19 17 14 11 8 6 6 7 8 8 7 6 6 5 5 6 6 7 7 7 7 6 4 4 4 5 nan
nan 4 5 5 6 6 6 6 6 6 6 7 7 7 6 6 6 6 6 6 6 5 5 5 5 6 6 6 6 6 6 6 6 6 6 6 6 7 8 8 8 8 7 6 7 14 18 13 12 12 11 8 8 7 7 7 7 9 12 10 5 1 -2 1 4 6 6 5 3 3 3 4 8 13 18 21 22 21 18 14 11 8 7 7 8 9 9 8 8 7 6 6 6 7 7 7 7 6 6 6 6 5 nan
nan 4 4 5 5 6 6 6 6 6 6 6 7 7 6 6 6 6 6 6 6 6 5 5 5 6 6 7 6 6 6 5 5 5 5 5 6 7 8 8 8 7 7 6 8 15 15 12 14 13 10 10 10 8 7 8 8 10 11 7 2 -1 -1 3 5 7 7 6 5 4 3 3 4 7 12 17 20 21 20 18 15 12 10 9 9 8 8 9 9 9 8 7 7 7 7 7 7 6 7 7 6 7 nan
nan 4 4 5 5 6 6 6 6 6 6 6 7 7 7 7 6 6 6 6 6 5 5 5 5 6 7 7 7 7 6 6 5 5 4 5 5 6 8 8 8 7 6 5 6 11 13 16 15 11 8 9 8 6 7 7 7 8 8 6 2 0 1 3 5 7 8 8 6 5 3 3 3 4 7 11 15 18 20 21 20 18 16 13 10 8 7 7 8 9 10 9 9 8 8 7 7 6 6 6 7 7 nan
nan 4 4 4 5 6 6 6 6 6 6 6 7 7 7 7 6 6 6 6 5 5 5 5 5 6 7 7 7 7 6 6 5 5 4 5 5 6 7 8 7 7 6 5 6 9 13 16 14 11 9 9 6 6 5 4 5 7 8 6 2 0 1 2 4 6 8 9 8 6 4 3 3 3 4 7 9 13 17 20 22 23 22 19 15 11 8 7 7 8 9 9 10 9 10 9 8 7 5 5 6 7 nan
nan 3 4 4 5 6 6 6 6 6 6 6 6 7 7 7 7 6 6 6 5 5 5 5 5 6 7 7 7 7 7 6 6 5 5 5 6 7 7 7 7 6 6 5 6 7 13 18 17 12 11 9 5 3 3 7 9 10 10 5 1 0 0 2 4 6 8 9 9 7 5 3 3 3 3 4 6 7 10 15 21 25 28 27 22 16 10 7 6 6 7 9 9 10 10 10 9 9 7 6 6 6 nan
nan 3 3 4 6 6 6 6 6 6 6 6 6 6 7 7 7 7 6 6 5 5 5 5 6 7 7 7 7 7 7 7 6 6 5 5 6 7 7 7 7 6 6 6 6 7 14 22 17 12 10 6 2 3 7 12 10 10 8 3 1 -1 -1 1 4 6 8 9 9 8 6 4 3 2 3 4 5 6 7 10 15 21 28 31 29 23 14 9 7 6 7 7 8 8 10 10 10 11 10 8 7 6 nan
nan 3 3 4 6 6 6 6 6 6 6 6 6 6 6 7 7 7 7 7 6 5 5 5 6 6 7 7 7 7 7 8 7 7 6 6 6 7 7 7 6 6 6 6 7 8 18 22 13 9 8 4 4 6 12 12 7 8 7 3 -2 -3 -0 2 5 6 7 8 9 9 8 5 3 3 3 4 5 6 6 6 9 14 21 28 30 28 21 14 9 6 6 7 8 8 9 9 10 11 10 9 10 9 nan
nan 3 3 5 6 7 6 6 6 6 6 6 6 6 6 7 7 8 8 8 7 6 5 5 6 6 7 7 7 7 8 8 8 8 7 6 6 7 7 6 6 6 6 7 9 11 19 19 11 9 6 4 6 10 14 10 7 9 8 -1 -4 -2 1 3 5 6 7 8 8 9 9 7 5 4 3 4 5 5 5 5 6 8 13 19 24 27 26 21 16 11 7 6 7 8 8 9 9 10 10 10 9 8 nan
nan 4 5 6 7 7 6 6 6 6 6 6 6 6 6 7 7 8 9 8 7 6 5 5 6 6 7 7 7 7 8 9 9 8 7 7 7 7 6 6 6 6 7 9 12 16 21 16 8 6 5 8 11 13 12 8 7 9 3 -7 -5 -2 1 4 6 7 7 7 8 8 9 8 7 5 5 4 4 4 4 4 5 5 7 11 15 19 24 25 23 19 12 8 7 7 8 8 9 9 9 9 8 8 nan
nan 5 6 6 6 6 6 6 6 6 6 6 6 6 6 7 8 9 9 8 7 6 5 5 6 6 6 6 6 7 8 10 10 9 8 7 7 6 6 6 6 7 9 12 18 22 20 9 3 4 9 13 11 10 8 7 8 7 -4 -8 -3 -0 2 4 6 7 7 8 8 8 8 8 8 7 6 5 5 4 4 4 4 5 5 6 8 11 16 23 27 27 20 12 8 7 7 8 9 9 8 9 9 9 nan
nan 6 5 5 6 6 6 6 6 6 7 6 6 6 6 7 8 9 9 8 7 6 6 6 6 6 6 6 7 8 9 11 10 9 8 7 7 6 6 6 7 9 12 20 24 20 10 2 4 8 13 11 8 7 8 9 7 2 -7 -5 -1 1 2 4 6 7 7 8 8 8 8 8 8 8 7 6 5 4 4 4 4 4 5 6 6 7 10 18 24 29 27 19 13 8 6 7 8 9 9 8 9 9 nan
nan 4 4 6 6 6 6 7 7 7 7 7 6 5 6 7 8 9 9 8 7 6 6 7 7 7 6 7 7 9 11 12 11 10 8 7 7 6 5 6 8 11 20 26 19 9 0 1 7 10 10 7 6 7 9 9 5 -2 -6 -2 -0 1 3 4 6 7 7 8 8 8 8 8 8 8 8 7 6 5 4 4 4 4 5 6 6 6 7 12 19 25 30 25 18 11 7 7 8 9 10 9 9 9 nan
nan 3 5 6 6 6 6 7 7 7 7 7 6 5 6 7 9 10 9 7 6 6 6 7 7 7 7 7 9 13 17 15 13 11 9 7 6 6 6 8 12 17 26 21 10 2 -0 5 10 10 7 5 7 8 8 7 2 -5 -4 -1 0 1 3 5 6 7 8 8 8 8 8 8 8 8 8 8 7 6 5 4 4 4 5 6 6 6 6 9 14 20 27 28 23 16 10 8 8 9 10 9 8 8 nan
nan 5 6 6 6 6 7 7 7 8 8 7 6 5 6 8 9 9 8 6 6 6 7 8 8 8 8 9 13 21 22 15 14 11 8 7 6 6 7 12 18 24 23 11 4 1 3 8 11 10 6 6 8 8 7 5 -1 -5 -2 0 1 2 3 5 6 7 8 8 8 8 8 8 8 8 8 8 8 7 6 5 5 5 5 5 5 6 6 8 10 15 21 26 25 21 15 11 9 9 10 9 8 8 nan
nan 6 7 6 6 7 7 8 8 8 8 7 6 6 8 9 10 9 8 6 6 7 8 8 8 9 10 13 18 24 20 12 12 10 7 7 8 9 12 19 22 23 14 5 1 1 5 9 10 9 7 7 8 6 6 3 -2 -4 -1 1 2 3 4 6 7 7 8 8 8 8 8 8 8 8 8 8 9 8 7 6 6 5 5 5 5 5 6 7 9 11 15 20 22 23 19 14 12 10 10 10 9 9 nan
nan 8 7 7 7 7 8 8 8 8 8 8 7 8 9 10 10 9 7 6 7 8 8 9 10 12 13 17 21 20 12 8 9 9 7 6 8 12 19 22 19 14 7 2 0 3 8 9 9 8 7 7 7 6 5 2 -3 -2 -0 1 2 3 5 6 7 7 8 8 8 8 8 8 8 8 8 8 9 9 8 8 6 6 5 5 5 5 6 7 8 9 10 13 17 20 21 19 16 13 11 11 10 10 nan
nan 10 8 9 8 9 10 11 11 10 10 8 9 11 12 13 11 9 7 9 10 10 9 11 15 17 18 20 17 12 7 7 8 8 7 6 8 12 17 15 11 8 5 2 4 9 10 9 9 8 6 7 7 7 6 0 -4 -2 0 2 3 4 5 6 7 7 7 8 8 8 8 8 8 8 8 8 8 8 9 8 8 7 6 5 5 5 6 6 7 8 9 10 12 15 19 21 20 18 14 12 11 11 nan
nan 9 9 9 9 11 13 13 12 12 9 8 13 16 15 13 11 8 9 13 12 10 10 16 20 19 17 13 8 7 7 9 8 7 6 6 8 10 10 8 7 6 3 4 8 11 9 9 8 7 6 8 8 8 4 -3 -4 -1 1 3 4 5 5 6 7 7 8 8 8 8 8 8 8 8 8 8 8 8 9 9 8 8 7 6 5 5 6 6 8 8 9 10 10 11 16 21 23 21 17 14 12 12 nan
nan 8 8 8 10 11 12 11 11 10 5 6 16 18 14 11 8 6 11 14 11 8 12 18 19 16 11 6 6 8 10 8 7 7 6 7 8 8 7 6 6 5 4 7 9 9 8 8 8 7 8 8 8 7 3 -2 -0 1 2 3 4 5 5 6 7 7 8 8 8 8 8 9 9 8 8 8 8 8 8 9 9 8 7 6 6 5 5 6 7 8 9 10 10 9 12 18 22 23 21 16 14 13 nan
nan 7 7 8 9 8 8 8 8 7 4 8 16 15 11 8 6 6 11 11 8 7 12 16 14 11 7 5 5 8 8 5 4 5 6 7 7 6 6 4 3 4 6 6 7 7 7 8 8 7 8 7 6 6 1 -0 2 2 3 3 4 4 5 6 6 7 8 8 8 9 9 9 9 9 8 8 8 8 8 8 9 9 9 8 6 6 5 6 6 7 8 9 9 9 10 14 18 22 21 18 16 14 nan
nan 7 7 8 7 7 6 7 7 7 6 9 13 11 7 5 4 7 10 10 8 8 11 12 12 9 4 3 4 6 4 2 3 5 6 5 4 4 3 2 3 5 5 5 7 7 8 8 8 7 6 5 6 5 2 1 2 3 4 4 4 4 5 6 6 7 8 8 9 9 9 9 9 9 9 8 8 8 8 8 9 9 9 9 8 6 5 5 6 7 8 9 9 10 10 12 15 18 20 20 17 15 nan
nan 7 7 8 7 7 7 7 8 8 7 8 10 8 5 4 6 8 10 9 8 9 10 10 8 4 2 2 4 4 4 5 5 6 5 4 3 3 3 3 5 6 5 6 8 9 8 7 6 6 5 6 7 6 4 2 3 4 4 4 4 4 5 5 6 7 8 8 9 9 9 9 9 9 9 9 8 8 8 8 9 9 10 10 9 8 6 6 6 6 7 9 9 10 11 11 13 15 18 19 18 17 nan
nan 7 7 7 7 7 7 8 8 8 8 8 8 7 5 7 9 9 9 8 8 8 7 5 3 3 4 4 6 5 8 9 7 7 7 6 7 8 6 6 7 6 5 8 9 9 7 5 5 4 5 7 7 7 6 4 5 5 5 4 4 4 5 5 6 7 8 8 9 9 9 10 9 9 9 9 9 9 9 9 9 9 10 11 10 10 8 6 6 6 7 8 9 10 10 11 12 14 17 18 18 17 nan
nan 7 6 7 8 8 8 8 8 8 8 8 8 7 7 8 9 8 8 8 7 6 5 4 5 8 9 9 9 9 11 10 8 8 9 11 13 12 9 8 7 5 6 9 9 7 6 5 4 4 5 7 7 8 7 6 6 5 4 5 4 4 5 5 6 7 8 8 9 9 9 9 10 10 9 9 10 9 9 9 9 9 10 11 11 11 9 6 6 6 6 7 8 9 9 10 11 13 15 16 18 18 nan
nan 7 7 8 9 8 8 8 8 8 8 8 8 8 8 7 8 7 8 7 7 7 7 8 10 11 10 10 9 10 11 10 8 6 9 14 14 11 8 6 6 6 9 9 6 4 5 4 4 5 7 7 7 9 7 7 6 4 4 5 4 5 5 6 7 8 8 9 8 9 9 10 10 10 10 10 10 10 9 10 10 9 10 11 11 12 10 8 7 6 6 7 8 8 8 8 9 11 13 15 17 18 nan
nan 8 8 8 8 8 8 8 8 8 8 8 8 8 8 7 8 7 7 7 7 8 8 8 8 7 6 7 7 8 9 9 7 8 11 12 9 6 5 7 7 8 8 6 6 6 6 5 6 7 9 7 8 8 6 6 4 4 5 5 5 5 6 7 7 8 8 8 8 9 9 10 10 10 10 10 10 10 10 10 10 10 10 10 11 12 11 9 7 6 6 7 7 8 8 9 9 9 10 13 15 17 nan
nan 8 8 7 8 8 9 8 8 8 8 8 8 8 7 7 7 7 7 8 8 7 6 6 6 5 6 7 7 8 9 8 9 9 9 8 5 5 7 8 7 7 7 9 12 12 10 8 7 9 11 10 9 8 6 6 4 5 5 5 5 6 7 7 8 8 8 8 8 8 9 10 10 10 10 10 10 10 10 10 10 10 9 10 11 12 12 11 9 7 5 6 7 8 9 9 9 10 10 12 13 15 nan
nan 8 8 8 9 9 8 8 8 8 8 8 8 7 6 6 7 7 7 8 7 7 7 8 8 8 9 9 9 10 9 9 9 8 8 9 8 7 7 6 6 8 11 14 13 11 10 9 10 11 8 7 7 8 9 8 7 6 5 6 7 7 7 8 7 7 8 8 8 9 10 10 10 10 10 10 10 10 10 10 10 9 9 9 10 11 13 11 9 7 5 5 6 7 9 10 10 10 11 12 12 13 nan
nan 8 8 8 8 8 8 8 9 8 8 8 7 7 6 6 6 7 7 7 7 6 7 7 8 7 8 8 9 9 8 8 9 8 9 11 10 10 9 7 8 10 12 12 9 8 8 9 8 6 4 3 6 8 9 7 7 6 8 9 8 8 8 7 7 7 8 8 9 9 9 9 9 9 9 9 9 9 10 10 10 9 9 9 9 10 12 11 9 7 5 5 6 7 8 9 10 10 11 11 12 13 nan
nan 8 8 8 8 8 8 8 8 8 8 7 7 6 5 5 6 7 7 6 5 4 5 5 5 5 7 8 8 8 7 8 8 8 9 10 10 11 10 8 10 11 11 8 7 7 7 6 4 5 6 6 7 6 6 6 7 9 12 11 9 8 8 7 8 8 8 9 9 9 8 8 8 8 8 9 9 9 9 10 10 10 10 10 9 9 10 11 10 8 7 5 5 6 7 8 9 10 11 11 12 12 nan
nan 8 8 8 8 8 7 8 8 8 8 7 6 4 3 4 6 7 7 6 5 5 6 7 7 8 9 9 8 8 7 7 8 7 8 7 7 7 6 10 12 12 10 7 6 7 7 6 7 8 7 7 7 7 7 8 9 11 11 7 7 7 8 9 10 10 10 9 9 8 8 8 8 8 8 8 8 9 9 10 10 10 10 10 10 10 10 10 11 10 9 7 6 6 6 7 8 9 10 11 11 12 nan
nan 8 8 8 8 8 7 8 9 8 7 6 5 3 3 7 10 11 10 9 9 10 9 10 10 10 10 9 8 8 8 8 9 9 7 6 7 7 9 11 11 11 10 9 9 9 8 7 8 8 7 7 8 11 11 9 9 9 5 5 9 11 12 13 13 13 11 9 8 7 7 7 8 8 7 8 8 8 9 9 10 10 10 10 10 10 10 10 11 11 11 9 8 6 6 6 7 8 9 10 10 10 nan
nan 9 8 8 8 8 8 9 8 6 5 6 6 5 8 13 14 13 11 10 9 9 9 11 11 10 10 10 10 10 10 11 11 11 10 10 11 11 10 9 9 10 10 11 12 11 8 7 6 6 7 9 12 13 10 9 7 6 6 10 13 15 17 18 17 13 10 8 7 7 7 8 8 7 7 7 7 8 9 9 10 10 11 11 11 11 11 10 11 11 12 11 9 7 6 5 6 7 8 9 9 9 nan
nan 8 8 8 8 8 9 8 6 4 6 9 9 9 12 13 12 10 8 7 6 8 10 10 9 9 10 11 11 10 9 10 10 10 10 11 11 11 9 10 11 11 9 10 10 9 7 6 6 7 8 11 11 10 10 9 7 6 7 9 11 13 16 16 13 11 10 9 8 8 9 8 7 7 6 6 7 8 8 9 10 10 10 11 11 11 11 11 11 11 12 12 10 8 6 5 5 6 7 9 8 8 nan
nan 9 9 8 8 8 9 8 5 4 9 11 10 10 10 9 8 8 7 7 7 10 10 9 8 9 11 11 10 8 7 8 8 8 8 8 8 8 8 9 10 10 9 8 7 6 6 8 9 9 9 8 8 8 10 8 6 6 7 7 8 9 10 8 8 9 11 12 11 10 9 8 7 6 5 6 6 7 8 9 10 10 11 11 11 12 12 12 11 12 12 12 12 10 7 5 5 5 7 8 8 8 nan
nan 10 9 8 8 9 10 5 3 7 11 11 10 8 8 8 8 8 8 7 8 9 8 8 8 10 10 10 9 7 7 8 9 8 7 7 7 7 7 8 9 9 8 7 8 7 8 9 8 7 8 8 9 9 9 6 5 6 7 7 7 7 6 6 6 8 11 13 13 12 9 7 6 5 5 6 6 7 8 9 9 10 11 12 12 13 13 13 12 12 12 12 12 11 9 6 5 5 7 8 8 7 nan
nan 9 9 9 9 10 6 2 4 11 13 11 9 8 8 9 9 9 8 7 8 8 7 8 9 10 9 9 8 8 9 9 9 8 6 6 6 7 7 8 9 8 8 7 8 9 9 8 7 8 9 10 11 10 8 4 5 7 8 8 6 5 4 4 4 7 10 11 11 10 8 7 6 5 6 6 7 7 8 9 9 11 12 13 13 14 13 13 13 13 13 13 13 12 11 8 6 5 6 8 8 7 nan
nan 10 9 9 9 7 3 2 9 14 12 10 9 8 9 10 9 8 7 8 9 7 7 9 10 9 8 8 9 9 8 8 7 7 5 6 6 6 8 9 8 8 7 7 8 9 9 9 10 12 12 10 9 6 3 4 6 9 9 6 4 3 2 2 4 9 9 8 8 7 8 6 6 6 6 7 7 7 8 9 10 11 12 13 14 14 14 14 13 13 13 13 13 14 13 10 8 6 6 8 7 6 nan
nan 9 9 8 8 6 3 6 11 13 11 10 9 8 9 9 9 8 8 9 9 8 8 9 10 9 9 8 9 8 7 7 7 7 7 7 8 8 8 8 8 7 7 9 10 10 9 10 11 12 11 10 7 4 3 7 9 9 9 7 6 6 5 6 9 10 8 7 6 7 7 7 8 7 8 8 8 8 9 10 11 12 13 13 13 13 13 13 14 14 14 14 15 16 15 12 10 8 7 8 8 7 nan
nan 9 8 8 7 5 4 7 10 12 12 10 9 8 8 8 8 8 8 8 9 9 8 8 10 11 10 9 8 7 7 8 9 9 9 10 9 8 7 8 8 9 10 11 11 10 9 9 9 8 8 9 8 7 8 10 10 10 11 11 11 10 8 8 9 7 5 5 5 7 6 8 9 9 9 9 9 10 11 12 12 12 12 12 12 12 12 13 13 14 14 15 16 17 17 14 11 9 8 9 9 8 nan
nan 9 9 9 7 5 4 8 12 13 12 9 8 7 8 7 8 8 8 9 9 8 7 8 9 9 10 9 7 7 7 8 9 9 9 10 8 6 8 12 12 12 11 11 10 10 8 8 7 7 9 9 9 11 14 12 11 12 12 11 11 9 7 7 6 5 4 5 7 8 6 7 9 11 12 13 14 15 14 13 12 11 10 10 10 11 12 12 13 13 13 14 15 17 17 14 12 9 9 11 11 9 nan
nan 10 10 8 6 5 6 9 13 13 11 8 7 8 8 8 9 9 8 8 7 7 7 7 7 9 8 6 6 6 7 8 8 8 8 9 8 7 12 14 13 12 11 11 10 9 7 7 8 10 10 9 10 12 14 12 12 13 11 9 8 6 6 6 6 5 7 10 11 8 5 5 7 10 13 16 18 18 16 12 10 9 9 9 9 10 11 11 12 12 13 14 15 16 15 14 12 11 10 12 12 11 nan
nan 10 9 7 7 6 7 11 14 13 10 8 8 8 8 9 9 9 8 7 6 6 6 6 8 9 7 5 6 7 8 8 8 8 9 10 10 10 12 13 12 12 11 11 10 9 8 9 10 10 8 7 8 10 10 12 13 13 10 9 7 5 5 6 7 8 11 13 10 6 5 6 6 8 12 15 16 14 12 10 9 9 9 9 9 9 9 10 11 12 13 14 14 13 13 13 12 12 14 16 16 13 nan
nan 11 8 6 6 7 9 11 13 11 9 8 8 7 8 9 7 6 6 7 7 7 7 8 9 9 8 8 10 10 9 9 9 10 11 11 11 11 13 14 13 11 11 10 9 8 8 10 9 8 7 8 9 10 10 11 11 11 9 9 7 6 6 8 9 10 13 12 7 4 5 7 8 10 12 11 10 9 9 10 10 10 10 9 9 8 9 10 11 12 14 14 13 12 11 10 10 11 16 21 22 19 nan
nan 11 7 5 7 9 10 10 12 11 9 9 8 6 6 5 3 3 6 8 8 8 8 10 10 9 8 10 11 10 9 9 8 8 10 12 12 12 14 14 13 11 11 10 10 10 9 9 8 8 8 10 11 11 11 9 8 8 7 8 8 8 8 8 9 11 13 7 3 2 4 7 9 12 11 10 9 8 9 10 11 12 12 10 9 9 10 11 12 13 13 13 12 11 9 7 7 8 14 22 28 28 nan
nan 11 8 6 8 10 9 8 10 10 10 9 8 5 3 4 4 5 6 6 8 9 10 12 10 9 9 10 10 9 7 7 7 8 11 13 12 13 14 12 12 12 13 14 15 15 14 12 10 8 8 10 11 10 9 7 7 7 7 8 9 8 8 8 10 12 10 3 2 3 6 8 10 12 11 10 9 8 7 8 10 11 11 10 11 13 15 13 12 12 11 10 10 10 9 7 6 6 11 21 29 32 nan
nan 9 7 7 7 9 7 7 10 11 10 7 5 3 4 5 6 7 8 8 10 11 12 12 10 10 10 11 11 8 5 6 7 12 15 12 10 10 10 12 13 14 16 18 17 17 17 14 11 10 10 11 10 7 5 7 7 7 9 9 9 8 8 11 12 12 7 5 6 7 8 9 11 12 11 9 8 7 6 7 7 8 9 12 15 18 18 15 13 10 8 8 8 8 8 8 7 7 12 19 26 30 nan
nan 6 7 8 8 9 7 7 10 10 7 6 6 7 7 7 11 15 14 11 12 11 10 10 10 10 11 10 9 5 4 6 8 13 13 7 5 5 8 11 13 16 18 16 16 18 19 18 18 18 14 8 5 4 5 8 8 9 9 9 7 6 8 11 11 10 8 9 10 10 10 11 12 11 8 5 4 4 5 6 6 8 9 12 13 14 12 11 8 6 4 5 6 8 9 9 9 9 11 17 23 25 nan
nan 6 8 9 9 9 7 8 9 8 8 10 10 12 10 11 15 17 13 11 12 12 11 9 8 8 9 9 8 4 4 7 8 10 7 3 5 8 12 13 15 14 12 12 16 19 21 23 21 15 7 1 3 5 8 9 10 10 8 7 6 6 8 9 8 9 9 10 11 12 13 14 13 9 4 3 3 3 5 5 7 8 9 9 8 8 8 5 3 0 1 5 7 8 9 10 10 10 11 16 20 21 nan
nan 6 8 10 9 9 8 7 7 8 10 10 10 11 9 9 11 11 9 10 11 11 10 6 4 5 5 7 7 5 6 7 7 9 8 7 10 15 17 16 13 8 6 11 14 17 18 16 9 -0 -4 1 6 9 10 10 9 9 8 7 7 8 8 8 8 9 10 10 11 12 13 13 11 8 5 5 6 7 7 7 7 8 8 8 9 10 10 6 1 1 6 8 9 10 10 10 10 10 11 14 16 18 nan
nan 4 9 12 10 9 7 5 6 8 10 10 9 9 6 6 8 9 8 7 6 5 5 7 7 7 7 7 7 7 8 6 7 10 7 6 9 13 13 12 8 6 7 11 12 14 9 1 -1 1 2 4 10 13 12 10 9 8 7 7 7 7 7 8 9 10 10 10 11 11 11 10 8 6 6 9 10 10 9 8 7 8 8 8 9 9 6 2 3 9 14 13 11 10 10 8 8 9 10 11 13 15 nan
nan 8 11 10 8 7 4 4 8 8 9 10 9 9 7 8 9 7 5 3 1 2 7 10 10 11 12 10 9 7 7 7 8 7 5 6 6 7 7 7 9 12 13 12 10 7 0 -4 2 9 12 12 14 14 12 10 9 7 6 6 6 6 6 9 10 10 10 10 10 9 10 10 8 7 9 11 11 8 5 6 9 10 10 10 9 8 6 6 11 16 16 12 10 9 9 7 8 8 8 9 10 12 nan
nan 9 8 5 4 6 7 8 9 8 10 10 9 8 8 9 7 5 5 4 5 9 12 12 8 10 12 13 11 10 9 8 7 6 6 6 6 6 6 5 7 9 10 9 7 4 -2 0 12 19 13 9 10 9 7 7 7 7 7 7 6 6 8 9 9 9 9 8 8 9 10 10 10 11 13 11 8 6 6 10 12 13 12 12 11 11 11 12 13 13 11 10 10 10 6 8 8 8 8 9 10 12 nan
nan 7 5 5 5 7 10 11 9 10 11 10 9 8 8 7 7 8 8 8 11 11 11 10 7 8 10 14 14 14 10 6 6 7 7 7 9 10 7 4 1 -0 -1 2 4 4 2 6 15 14 7 5 6 7 6 7 8 10 9 7 7 8 8 7 7 7 7 7 8 9 9 9 10 11 11 8 8 9 10 11 11 11 11 10 11 12 10 9 9 9 8 8 8 3 1 7 9 10 12 12 13 14 nan
nan 5 5 7 7 8 11 11 9 11 10 8 8 8 8 7 7 8 8 8 9 5 5 8 8 8 11 13 14 12 8 6 7 8 9 11 13 14 13 10 5 2 -1 -1 -0 2 5 10 12 8 5 7 9 10 10 11 12 13 10 7 7 7 7 6 7 7 7 7 8 9 9 9 9 9 8 8 10 10 11 11 10 10 10 12 13 12 9 7 6 7 4 2 0 -3 0 7 11 13 15 17 18 19 nan
nan 6 8 7 7 8 10 10 10 10 9 8 9 9 8 7 7 8 8 7 5 2 5 7 7 8 10 10 11 9 7 7 9 9 11 15 16 16 15 13 10 8 5 1 -0 2 5 8 8 6 6 8 8 10 12 12 11 10 8 5 5 7 10 11 11 11 11 9 9 9 9 9 9 9 8 10 10 10 10 10 10 10 12 13 13 11 7 5 5 4 3 3 2 1 2 7 9 12 16 20 23 26 nan
nan 8 9 7 7 9 11 11 11 11 9 9 10 10 8 8 7 7 5 4 2 2 5 6 8 10 10 9 10 9 9 10 9 9 12 14 13 11 10 10 10 9 8 7 7 8 8 6 3 3 5 5 5 7 9 9 8 7 5 5 7 11 14 14 13 13 12 10 11 11 10 8 8 8 8 8 8 9 9 9 10 10 12 11 10 8 7 7 7 7 9 8 4 -0 1 5 6 9 13 19 26 31 nan
nan nan nan nan nan nan nan nan nan nan nan nan nan nan nan nan nan nan nan nan nan nan nan nan nan nan nan nan nan nan nan nan nan nan nan nan nan nan nan nan nan nan nan nan nan nan nan nan nan nan nan nan nan nan nan nan nan nan nan nan nan nan nan nan nan nan nan nan nan nan nan nan nan nan nan nan nan nan nan nan nan nan nan nan nan nan nan nan nan nan nan nan nan nan nan nan nan nan nan nan nan nan nan
CAPE
27 24 22 24 23 23 28 33 36 36 45 54 61 61 65 70 70 77 82 84 84 82 73 57 44 44 35 31 29 29 31 33 39 39 46 45 45 40 28 23 23 23 26 30 32 32 28 5 nan nan nan nan nan nan nan nan nan nan nan nan nan nan nan 2 27 27 45 224 564 564 837 1021 1020 1020 1066 1203 1203 1306 1392 1479 1479 1715 1871 1947 1972 1972 1885 2004 2178 2178 2429 2578 2558 2558 2291 2311 2311 2268 1909 1793 1793 2106 2484
20 16 16 16 16 16 20 26 28 28 31 42 47 47 54 59 59 64 79 85 85 87 85 78 61 61 43 33 28 28 29 28 31 31 36 39 39 35 24 17 17 20 24 30 30 30 23 1 nan nan nan nan nan nan nan nan nan nan nan nan nan nan nan 2 20 20 41 81 306 306 582 820 930 930 1071 1160 1160 1254 1304 1386 1386 1554 1699 1866 1826 1826 1805 1869 2050 2050 2284 2542 2585 2585 2298 2223 2223 2205 1940 1645 1645 2021 2447
17 15 14 12 12 12 15 17 22 22 25 30 39 39 41 48 48 56 66 73 73 80 83 81 73 73 55 43 36 36 28 24 26 26 28 29 29 27 20 15 15 17 23 25 28 28 21 0 nan nan nan nan nan nan nan nan nan nan nan nan nan nan nan 4 16 16 38 61 129 129 324 564 767 767 976 1086 1086 1127 1172 1260 1260 1400 1583 1650 1668 1668 1710 1753 1858 1858 2098 2451 2604 2604 2430 2218 2218 2127 2090 1718 1718 1946 2357
17 15 13 12 10 10 10 14 19 19 23 26 29 29 31 37 37 47 58 64 64 69 71 73 69 69 57 54 50 50 39 27 22 22 21 20 20 19 18 17 17 19 21 23 24 24 8 nan nan nan nan nan nan nan nan nan nan nan nan nan nan nan nan 4 8 8 33 50 69 69 155 336 580 580 780 950 950 1018 1065 1193 1193 1324 1450 1511 1516 1516 1643 1707 1745 1745 1873 2204 2512 2512 2504 2234 2234 2115 2180 1911 1911 2074 2379
18 16 14 13 11 11 10 13 16 16 18 20 22 22 26 33 33 41 51 60 60 63 67 65 59 59 50 51 58 58 57 38 26 26 20 13 13 9 12 15 15 22 22 19 19 19 3 nan nan nan nan nan nan nan nan nan nan nan nan nan nan nan nan 2 7 7 19 46 59 59 87 185 350 350 591 786 786 883 995 1121 1121 1239 1349 1425 1472 1472 1578 1745 1816 1816 1811 1974 2372 2372 2463 2329 2329 2124 2157 2181 2181 2206 2344
16 17 16 15 13 13 12 14 16 16 19 19 19 19 22 27 27 35 44 54 54 61 61 57 50 50 42 44 53 53 59 48 36 36 20 10 10 5 5 10 10 20 23 18 13 13 2 nan nan nan nan nan nan nan nan nan nan nan nan nan nan nan nan 2 6 6 13 33 54 54 70 118 224 224 362 531 531 726 861 1011 1011 1124 1253 1323 1420 1420 1526 1730 1852 1852 1811 1821 2130 2130 2430 2310 2310 2176 2076 2217 2217 2294 2281
16 17 17 16 15 15 14 16 19 19 20 19 18 18 20 23 23 30 40 49 49 55 55 48 41 41 36 39 47 47 52 49 37 37 22 10 10 4 2 5 5 14 20 18 10 10 0 nan nan nan nan nan nan nan nan nan nan nan nan nan nan nan nan 2 6 6 13 26 55 55 70 83 130 130 188 289 289 443 597 792 792 1009 1133 1247 1324 1324 1409 1664 1834 1834 1915 1882 1924 1924 2285 2459 2459 2314 2144 2075 2075 2161 2181
14 16 17 17 16 16 16 18 22 22 23 21 20 20 18 22 22 28 38 44 44 47 45 41 34 34 29 34 41 41 42 42 38 38 22 10 10 3 2 3 3 6 12 17 7 7 nan nan nan nan nan nan nan nan nan nan nan nan nan nan nan nan nan 3 7 7 14 26 48 48 66 79 85 85 103 128 128 205 335 634 634 864 1029 1143 1256 1256 1292 1466 1719 1719 1839 1861 1851 1851 2006 2281 2281 2271 2180 2094 2094 2077 2100
12 16 17 17 16 16 15 20 23 23 26 23 21 21 18 20 20 28 35 41 41 41 40 36 29 29 27 31 34 34 34 37 33 33 21 9 9 3 2 3 3 4 6 13 7 7 nan nan nan nan nan nan nan nan nan nan nan nan nan nan nan nan 0 3 6 6 13 22 35 35 56 68 79 79 79 76 76 104 186 432 432 711 898 1036 1150 1150 1218 1340 1502 1502 1721 1839 1804 1804 1861 1954 1954 2036 2067 1934 1934 1981 2014
12 15 17 17 15 15 15 21 26 26 29 27 24 24 21 23 23 27 34 38 38 39 36 31 26 26 27 31 30 30 30 30 26 26 17 7 7 3 3 3 3 3 5 7 5 5 nan nan nan nan nan nan nan nan nan nan nan nan nan nan nan nan 0 3 6 6 11 19 25 25 44 62 72 72 71 69 69 69 143 328 328 532 741 894 1001 1001 1075 1182 1336 1336 1518 1720 1787 1787 1744 1748 1748 1697 1701 1698 1698 1775 1943
13 16 17 17 15 15 19 24 26 26 29 30 26 26 24 27 27 28 33 36 36 38 33 27 22 22 25 29 27 27 25 23 19 19 12 4 4 1 2 2 2 3 4 3 0 0 nan nan nan nan nan nan nan nan nan nan nan nan nan nan nan nan 0 4 8 8 12 14 20 20 32 52 58 58 63 64 64 63 112 228 228 356 499 639 726 726 900 1071 1161 1161 1375 1560 1670 1670 1730 1685 1685 1639 1511 1392 1392 1500 1702
12 16 17 18 14 14 19 24 28 28 28 30 29 29 30 34 34 34 36 36 36 37 33 24 20 20 25 24 23 23 18 16 12 12 5 2 2 1 1 1 1 3 3 1 nan nan nan nan nan nan nan nan nan nan nan nan nan nan nan nan nan nan 1 5 10 10 11 13 16 16 20 33 45 45 52 56 56 65 75 128 128 206 284 387 481 481 693 898 1022 1022 1203 1414 1516 1516 1658 1722 1722 1674 1493 1241 1241 1165 1377
8 12 19 17 10 10 16 22 26 26 26 27 28 28 30 34 34 34 37 37 37 36 30 23 18 18 23 20 17 17 12 9 4 4 1 0 0 0 0 0 0 2 2 nan nan nan nan nan nan nan nan nan nan nan nan nan nan nan nan nan nan nan 2 8 12 12 13 14 14 14 15 16 25 25 35 49 49 61 69 72 72 91 144 184 294 294 464 689 937 937 1117 1274 1459 1459 1593 1758 1758 1712 1571 1303 1303 1109 1174
1 5 17 14 7 7 12 18 21 21 22 22 23 23 26 28 28 29 32 34 34 35 30 23 19 19 20 17 11 11 6 3 0 0 nan nan nan nan nan 0 0 1 1 nan nan nan nan nan nan nan nan nan nan nan nan nan nan nan nan nan nan 0 4 10 16 16 17 18 16 16 13 6 12 12 25 42 42 57 69 73 73 73 66 86 167 167 311 502 751 751 1010 1187 1322 1322 1482 1703 1703 1748 1655 1421 1421 1179 1079
0 3 10 3 4 4 8 14 17 17 18 18 18 18 22 24 24 23 25 29 29 30 26 21 20 20 20 14 8 8 3 0 nan nan nan nan nan nan nan nan nan 0 1 nan nan nan nan nan nan nan nan nan nan nan nan nan nan nan nan nan nan 1 6 13 17 17 21 19 16 16 14 9 10 10 19 37 37 57 69 75 75 72 67 62 94 94 216 375 593 593 879 1081 1189 1189 1364 1546 1546 1736 1741 1552 1552 1290 1208
nan 1 4 1 1 1 4 9 13 13 14 15 17 17 20 20 20 16 17 22 22 22 18 17 19 19 17 10 5 5 1 nan nan nan nan nan nan nan nan nan nan 0 nan nan nan nan nan nan nan nan nan nan nan nan nan nan nan nan nan nan nan 3 10 16 20 20 23 21 18 18 14 9 9 9 9 29 29 49 65 73 73 74 67 63 64 64 146 267 459 459 718 945 1033 1033 1187 1393 1393 1677 1672 1638 1638 1458 1317
nan 0 1 nan 0 0 1 4 7 7 9 12 16 16 17 15 15 12 13 16 16 14 13 13 15 15 14 6 3 3 nan nan nan nan nan nan nan nan nan nan nan nan nan nan nan nan nan nan nan nan nan nan nan nan nan nan nan nan nan 0 0 5 13 20 25 25 26 24 22 22 16 14 12 12 6 18 18 41 58 69 69 72 67 63 65 65 86 180 344 344 541 783 950 950 1090 1230 1230 1428 1546 1668 1668 1590 1475
nan nan nan nan nan nan 0 1 3 3 5 7 13 13 13 9 9 6 8 9 9 8 7 8 10 10 7 2 1 1 nan nan nan nan nan nan nan nan nan nan nan nan nan nan nan nan nan nan nan nan nan nan nan nan nan nan nan nan nan 0 0 8 17 25 27 27 28 25 21 21 20 17 13 13 10 14 14 30 50 64 64 68 70 67 65 65 63 116 238 238 388 598 813 813 983 1123 1123 1272 1390 1522 1522 1630 1597
nan nan nan nan nan nan nan nan 0 0 1 3 8 8 7 3 3 2 3 4 4 3 2 3 5 5 2 0 nan nan nan nan nan nan nan nan nan nan nan nan nan nan nan nan nan nan nan nan nan nan nan nan nan nan nan nan nan nan nan 1 1 12 22 28 30 30 28 26 24 24 24 19 16 16 13 7 7 16 37 52 52 61 67 70 70 70 62 63 134 134 255 409 622 622 843 1019 1019 1125 1238 1396 1396 1613 1678
nan nan nan nan nan nan nan nan nan nan nan nan nan nan 0 nan nan nan nan nan nan nan nan nan nan nan nan nan nan nan nan nan nan nan nan nan nan nan nan nan nan nan nan nan nan nan nan nan nan nan nan nan nan nan nan nan nan nan nan 2 2 12 22 29 30 30 33 32 32 32 32 30 27 27 22 17 17 8 14 33 33 49 58 65 71 71 73 75 71 71 113 205 375 375 575 819 819 980 1061 1214 1214 1339 1477
nan nan nan nan nan nan nan nan nan nan nan nan nan nan nan nan nan nan nan nan nan nan nan nan nan nan nan nan nan nan nan nan nan nan nan nan nan nan nan nan nan nan nan nan nan nan nan nan nan nan nan nan nan nan nan nan nan nan 0 2 2 10 18 24 30 30 32 35 37 37 36 34 31 31 27 22 22 17 13 17 17 40 54 59 65 65 72 78 73 73 98 161 271 271 450 701 701 943 1059 1168 1168 1241 1319
nan nan nan nan nan nan nan nan nan nan nan nan nan nan nan nan nan nan nan nan nan nan nan nan nan nan nan nan nan nan nan nan nan nan nan nan nan nan nan nan nan nan nan nan nan nan nan nan nan nan nan nan nan nan nan nan nan nan 1 3 3 7 13 19 29 29 36 38 40 40 40 38 36 36 31 26 26 22 14 20 20 33 45 51 61 61 71 76 74 74 66 118 194 194 338 562 562 814 979 1053 1053 1172 1235
nan nan nan nan nan nan nan nan nan nan nan nan nan nan nan nan nan nan nan nan nan nan nan nan nan nan nan nan nan nan nan nan nan nan nan nan nan nan nan nan nan nan nan nan nan nan nan nan nan nan nan nan nan nan nan nan nan nan 2 4 4 4 9 16 27 27 35 39 44 44 42 41 39 39 37 33 33 26 21 19 19 24 36 46 59 59 71 78 82 82 73 87 128 128 231 439 439 668 899 965 965 1130 1201
nan nan nan nan nan nan nan nan nan nan nan nan nan nan nan nan nan nan nan nan nan nan nan nan nan nan nan nan nan nan nan nan nan nan nan nan nan nan nan nan nan nan nan nan nan nan nan nan nan nan nan nan nan nan nan nan nan nan 1 5 5 4 7 14 25 25 36 42 44 44 47 47 47 47 45 41 41 36 27 20 20 20 29 48 54 54 69 79 84 84 83 75 114 114 203 355 355 535 744 887 887 1042 1116
nan nan nan nan nan nan nan nan nan nan nan nan nan nan nan nan nan nan nan nan nan nan nan nan nan nan nan nan nan nan nan nan nan nan nan nan nan nan nan nan nan nan nan nan nan nan nan nan nan nan nan nan nan nan nan nan nan nan 0 4 4 5 6 12 21 21 34 42 48 48 52 53 52 52 53 48 48 45 36 26 26 20 23 35 56 56 65 81 86 86 86 79 88 88 179 351 351 499 668 827 827 925 1034
nan nan nan nan nan nan nan nan nan nan nan nan nan nan nan nan nan nan nan nan nan nan nan nan nan nan nan nan nan nan nan nan nan nan nan nan nan nan nan nan nan nan nan 0 2 2 nan nan nan nan nan nan nan nan nan nan nan nan nan 2 2 6 8 9 16 16 29 42 52 52 57 59 59 59 58 58 58 54 44 36 36 25 20 26 47 47 62 77 87 87 88 76 64 64 141 319 319 465 567 709 709 818 919
nan nan nan nan nan nan nan nan nan nan nan nan nan nan nan nan nan nan nan nan nan nan nan nan nan nan nan nan nan nan nan nan nan nan nan nan nan nan nan nan nan nan nan nan nan nan nan nan nan nan nan nan nan nan nan nan nan nan nan 1 1 5 8 8 13 13 24 39 52 52 58 62 63 63 63 61 61 58 49 42 42 31 22 24 35 35 63 78 91 91 89 77 69 69 95 239 239 459 531 604 604 736 849
nan nan nan nan nan nan nan nan nan nan nan nan nan nan nan nan nan nan nan nan nan nan nan nan nan nan nan nan nan nan nan nan nan nan nan nan nan nan nan nan nan nan nan nan nan nan nan nan nan nan nan nan nan nan nan nan nan nan nan 1 1 5 7 8 13 13 24 37 49 49 57 63 65 65 66 66 66 64 56 48 48 40 31 27 33 33 62 79 91 91 93 86 78 78 71 150 150 323 496 549 549 625 747
nan nan nan nan nan nan nan nan nan nan nan nan nan nan nan nan nan nan nan nan nan nan nan nan nan nan nan nan nan nan nan nan nan nan nan nan nan nan nan nan nan nan nan nan nan nan nan nan nan nan nan nan nan nan nan nan nan nan nan 0 0 4 8 10 13 13 21 35 47 47 57 64 69 69 69 71 71 69 65 60 60 52 43 35 37 37 55 79 90 90 101 95 87 87 78 89 89 220 414 516 516 588 699
nan nan nan nan nan nan nan nan nan nan nan nan nan nan nan nan nan nan nan nan nan nan nan nan nan nan nan nan nan nan nan nan nan nan nan nan nan nan nan nan nan nan nan nan nan nan nan nan nan nan nan nan nan nan nan nan nan nan 0 0 0 2 7 9 13 13 21 33 45 45 53 60 69 69 70 74 74 73 76 71 71 64 54 45 43 43 51 78 93 93 105 106 95 95 85 77 77 123 310 484 484 528 656
nan nan nan nan nan nan nan nan nan nan nan nan nan nan nan nan nan nan nan nan nan nan nan nan nan nan nan nan nan nan nan nan nan nan nan nan nan nan nan nan nan nan nan nan nan nan nan nan nan nan nan nan nan nan nan nan nan nan 0 0 0 1 4 8 14 14 22 32 43 43 49 58 68 68 72 77 77 78 78 77 77 71 61 55 49 49 49 76 97 97 103 108 104 104 90 83 83 103 257 428 428 498 594
nan nan nan nan nan nan nan nan nan nan nan nan nan nan nan nan nan nan nan nan nan nan nan nan nan nan nan nan nan nan nan nan nan nan nan nan nan nan nan nan nan nan nan nan nan nan nan nan nan nan nan nan nan nan nan nan nan nan 0 0 0 0 2 7 14 14 21 31 40 40 46 56 65 65 72 78 78 79 77 78 78 70 65 61 54 54 51 67 88 88 96 102 103 103 95 87 87 88 184 371 371 466 511
nan nan nan nan nan nan nan nan nan nan nan nan nan nan nan nan nan nan nan nan nan nan nan nan nan nan nan nan nan nan nan nan nan nan nan nan nan nan nan nan nan nan nan nan nan nan nan nan nan nan nan nan nan nan nan nan nan nan nan 0 0 nan 1 6 13 13 19 27 34 34 44 51 62 62 68 72 72 73 73 72 72 69 66 63 58 58 54 57 72 72 87 92 100 100 101 91 91 80 121 292 292 436 507
nan nan nan nan nan nan nan nan nan nan nan nan nan nan nan nan nan nan nan nan nan nan nan nan nan nan nan nan nan nan nan nan nan nan nan nan nan nan nan nan nan nan nan nan nan nan nan nan nan nan nan nan nan nan nan nan nan nan nan nan nan nan 1 4 11 11 16 20 27 27 35 45 54 54 64 67 67 65 66 67 67 67 65 62 59 59 53 54 61 61 71 82 98 98 105 96 96 87 88 237 237 405 529
nan nan nan nan nan nan nan nan nan nan nan nan nan nan nan nan nan nan nan nan nan nan nan nan nan nan nan nan nan nan nan nan nan nan nan nan nan nan nan nan nan nan nan nan nan nan nan nan nan nan nan nan nan nan nan nan nan nan nan nan nan nan 1 3 7 7 13 16 21 21 28 36 44 44 51 56 56 56 57 61 61 61 63 63 62 62 58 54 56 56 60 77 94 94 106 106 106 97 91 187 187 399 526
nan nan nan nan nan nan nan nan nan nan nan nan nan nan nan nan nan nan nan nan nan nan nan nan nan nan nan nan nan nan nan nan nan nan nan nan nan 0 nan nan nan nan nan nan nan nan nan nan nan nan nan nan nan nan nan nan nan nan nan nan nan nan 0 3 5 5 10 14 17 17 23 26 33 33 40 44 44 48 53 58 58 61 63 65 65 65 63 58 54 54 55 68 90 90 108 111 111 109 102 145 145 318 492
nan nan nan nan nan nan nan nan nan nan nan nan nan nan nan nan nan nan nan nan nan nan nan nan 2 2 0 nan nan nan nan nan nan nan nan nan nan nan 0 nan nan nan nan nan nan nan nan nan nan nan nan nan nan nan nan nan nan nan nan nan nan nan nan nan 2 2 9 13 16 16 16 19 24 24 28 32 32 43 51 57 57 58 61 67 71 71 67 63 55 55 52 59 83 83 104 116 116 112 110 111 111 240 408
nan nan nan nan nan nan nan nan nan nan nan nan nan nan nan nan nan nan nan nan nan 4 0 nan 3 3 3 nan nan nan 1 1 0 0 nan nan nan nan nan nan nan nan nan nan nan nan nan nan nan nan nan nan nan nan nan nan nan nan nan nan nan nan nan nan 1 1 6 13 15 15 14 14 18 18 23 30 30 39 48 56 56 57 61 64 68 68 66 63 56 56 50 52 70 70 95 109 109 116 110 105 105 172 328
nan nan nan nan nan nan nan nan nan nan nan nan nan nan nan nan nan nan nan 1 1 2 3 nan 1 1 2 1 1 1 16 10 3 3 0 nan nan nan nan nan nan nan nan nan nan nan nan nan nan nan nan nan nan nan nan nan nan nan nan nan nan nan nan nan 4 4 1 5 14 14 15 12 16 16 20 28 28 37 48 54 54 56 58 59 60 60 62 61 56 56 47 44 55 55 76 102 102 109 109 100 100 101 227
nan nan nan nan nan nan nan nan nan nan nan nan nan nan nan nan nan nan nan 1 1 5 5 4 2 2 1 1 3 3 15 14 3 3 1 0 0 nan nan nan nan nan nan nan nan nan nan nan nan nan nan nan nan nan nan nan nan nan nan nan nan nan nan nan 3 3 0 nan 6 6 17 15 14 14 17 26 26 35 44 48 48 48 49 49 52 52 57 59 55 55 45 37 42 42 57 88 88 105 115 103 103 98 181
nan nan nan nan nan nan nan nan nan nan nan nan nan nan nan 0 0 nan nan 2 2 7 16 20 5 5 4 11 7 7 7 9 6 6 2 1 1 nan nan nan nan nan nan nan nan nan nan nan nan nan nan nan nan nan nan nan nan nan nan nan nan nan 1 0 2 2 nan 0 2 2 16 22 14 14 15 21 21 30 34 37 37 34 36 42 48 48 54 58 57 57 50 41 38 38 48 74 74 110 127 116 116 97 105
nan nan nan nan nan nan nan nan nan nan nan nan nan nan nan 0 0 0 1 5 5 9 19 28 16 16 8 13 13 13 10 9 14 14 8 1 1 nan nan nan nan nan nan 4 nan nan nan nan nan nan nan 0 nan nan nan nan nan nan 0 0 0 3 10 5 0 0 nan 5 7 7 15 24 14 14 12 18 18 23 22 18 18 16 24 37 48 48 56 63 70 70 67 61 50 50 48 61 61 105 136 125 125 101 93
nan nan nan nan nan nan nan nan 0 0 0 0 0 0 nan 0 0 2 8 18 18 14 9 17 17 17 22 18 14 14 14 15 12 12 15 10 10 8 8 3 3 0 nan nan nan nan nan nan 3 3 4 nan nan nan nan nan nan 0 8 8 8 7 6 5 7 7 13 12 14 14 18 16 16 16 11 8 8 7 4 2 2 4 13 33 52 52 65 79 85 85 93 89 90 90 80 95 95 130 174 176 176 128 97
nan nan nan nan nan nan nan nan 0 0 0 0 0 0 0 0 0 2 8 15 15 10 9 11 19 19 27 21 20 20 12 7 6 6 13 22 22 10 7 1 1 0 nan nan nan nan nan nan 4 4 1 nan nan nan nan 1 1 5 12 6 6 2 8 4 11 11 19 24 17 17 12 8 5 5 7 4 4 4 2 1 1 3 11 28 48 48 62 76 84 84 92 95 97 97 100 110 110 138 184 224 224 161 106
nan nan nan nan nan nan nan nan 3 3 0 1 1 1 1 1 1 5 10 12 12 13 10 11 28 28 25 26 20 20 12 7 6 6 12 15 15 6 2 nan nan nan 0 nan nan nan nan 0 0 0 nan nan nan nan nan 7 7 16 19 12 12 1 8 9 16 16 20 24 10 10 8 3 1 1 0 0 0 5 3 2 2 4 9 23 37 37 51 59 71 71 82 88 102 102 119 135 135 156 179 208 208 172 123
nan nan nan nan nan nan nan nan 1 1 0 2 2 2 2 3 3 8 18 18 18 14 12 11 18 18 36 42 23 23 14 9 16 16 19 9 9 6 9 0 0 nan nan nan nan nan nan 1 nan nan nan nan nan nan nan 12 12 24 16 7 7 4 9 15 22 22 25 24 14 14 5 0 0 0 0 nan nan 1 4 6 6 4 8 16 28 28 36 44 55 55 70 89 110 110 132 152 152 170 181 191 191 173 130
nan nan nan nan nan nan nan nan nan nan 1 2 4 4 4 5 5 9 19 23 23 16 15 19 24 24 30 57 23 23 14 10 13 13 14 7 7 7 30 6 6 nan nan nan nan nan nan 0 nan nan nan nan nan nan 3 15 15 9 1 1 1 5 12 23 20 20 28 12 14 14 1 nan 0 0 nan nan nan nan 1 8 8 7 8 11 16 16 26 33 43 43 61 83 108 108 133 154 154 190 211 224 224 168 134
nan nan nan nan nan nan nan nan 0 0 1 4 6 6 6 8 8 17 24 27 27 17 25 45 25 25 33 23 16 16 14 14 15 15 11 5 5 2 6 5 5 nan nan nan nan nan 5 4 1 1 nan nan 0 0 8 8 8 0 nan nan nan 1 15 23 21 21 18 7 3 3 nan nan 0 0 nan nan nan nan 1 4 4 5 7 6 10 10 17 22 31 31 49 72 102 102 131 158 158 195 223 301 301 247 169
nan nan nan nan nan nan nan nan 4 4 2 8 10 10 8 14 14 23 40 31 31 23 23 34 60 60 34 27 21 21 16 21 25 25 14 8 8 2 0 0 0 nan nan nan 0 0 20 7 0 0 nan nan 6 6 7 nan nan nan nan nan nan 3 21 17 14 14 9 1 nan nan nan nan 0 0 0 nan nan nan nan 0 0 1 7 8 7 7 9 13 17 17 30 60 94 94 130 150 150 172 189 234 234 294 272
nan nan nan nan nan nan nan 0 2 2 2 7 11 11 10 16 16 30 37 30 30 30 22 24 48 48 43 32 25 25 27 34 37 37 18 9 9 5 3 0 0 nan nan nan 4 4 12 1 nan nan nan 3 15 15 3 nan nan nan nan 5 5 6 23 11 5 5 1 nan nan nan nan nan nan nan 0 0 0 0 nan nan nan 1 12 12 6 6 10 12 10 10 16 42 67 67 101 123 123 139 161 208 208 273 314
nan nan nan nan nan nan nan 0 2 2 4 20 12 12 13 19 19 26 18 24 24 27 29 40 52 52 52 32 28 28 37 40 40 40 22 15 15 12 9 5 5 1 nan nan 3 3 3 1 1 1 10 16 5 5 nan nan nan nan 0 3 3 13 11 nan nan nan nan nan nan nan nan nan 0 0 nan 1 1 2 nan 2 2 5 5 1 3 3 8 9 11 11 14 27 41 41 57 83 83 104 142 204 204 229 257
nan nan nan nan nan nan 0 1 1 1 16 8 2 2 2 2 2 5 14 22 22 30 44 49 65 65 55 40 33 33 50 42 43 43 29 21 21 16 13 16 16 3 0 nan nan nan nan 0 18 18 25 10 nan nan nan nan nan nan 7 2 2 11 3 nan nan nan nan nan nan nan nan 0 2 2 1 1 1 3 5 3 3 2 1 2 3 3 5 7 7 7 10 18 28 28 32 49 49 82 126 191 191 214 214
nan nan nan nan 0 0 0 1 1 1 5 2 2 2 2 5 5 8 13 19 19 26 48 77 66 66 60 59 39 39 53 49 45 45 42 30 30 21 16 16 16 9 7 nan nan nan nan 0 6 6 0 nan nan nan nan nan nan nan 2 2 2 1 nan nan nan nan nan nan nan nan nan 0 4 4 1 0 0 1 2 1 1 nan nan 3 4 4 5 5 5 5 5 7 18 18 26 35 35 59 107 172 172 203 199
nan nan nan nan 0 0 0 1 1 1 3 3 3 3 3 7 7 8 11 17 17 33 57 98 101 101 80 59 49 49 51 51 46 46 44 35 35 28 24 18 18 11 11 5 nan nan nan 1 nan nan nan nan nan nan nan nan nan nan 2 3 3 nan nan nan nan nan nan nan nan nan nan nan 2 2 1 0 0 1 1 nan nan 0 nan 0 0 0 5 7 5 5 5 5 7 7 17 32 32 43 85 141 141 180 192
nan nan nan nan 0 0 0 1 1 1 3 4 4 4 5 8 8 8 12 25 25 41 59 92 108 108 93 90 80 80 60 74 48 48 51 44 44 37 31 30 30 28 13 10 5 5 3 1 nan nan nan nan nan nan nan nan nan nan 3 6 6 nan nan nan nan nan nan nan nan nan nan nan 1 1 1 0 0 nan nan nan nan nan nan 0 5 5 8 11 8 8 5 4 7 7 11 39 39 39 72 121 121 166 178
nan 0 0 0 0 0 1 1 2 2 3 6 7 7 10 10 10 11 18 34 34 52 69 74 110 110 122 118 120 120 86 66 39 39 48 48 48 55 37 32 32 22 16 14 20 20 19 10 1 1 nan nan nan nan nan nan nan 2 13 6 6 nan nan nan nan nan nan nan nan nan nan nan 2 2 1 0 0 nan nan nan nan nan 0 3 9 9 11 17 11 11 5 5 9 9 12 33 33 45 72 112 112 151 179
nan nan 0 1 0 0 0 1 4 4 5 8 9 9 12 12 12 14 30 44 44 60 59 58 75 75 112 137 134 134 130 61 72 72 42 45 45 64 48 45 45 37 30 27 33 33 30 23 7 7 nan nan nan nan nan 0 0 8 14 1 1 nan nan nan nan nan nan nan nan nan nan 0 0 0 2 0 0 nan nan nan nan nan nan 1 3 3 6 10 13 13 7 9 9 9 18 31 31 51 91 131 131 158 192
nan nan nan 1 1 1 0 2 5 5 8 17 15 15 15 15 15 18 35 40 40 43 81 54 49 49 72 131 147 147 148 65 48 48 51 47 47 59 66 54 54 57 65 66 54 54 33 24 13 13 2 nan nan nan 1 5 5 12 7 0 0 nan nan nan nan nan nan nan nan nan nan 1 3 3 2 nan nan nan nan nan nan nan nan 0 1 1 5 10 16 16 14 15 21 21 29 44 44 63 104 150 150 188 200
nan nan nan nan nan nan 1 3 7 7 9 26 19 19 20 23 23 30 29 37 37 45 59 53 44 44 68 95 128 128 110 81 30 30 41 52 52 56 72 66 66 74 106 81 41 41 27 15 13 13 6 nan nan nan nan 4 4 9 2 nan nan nan nan nan 0 0 0 nan 0 0 0 3 6 6 nan nan nan nan nan nan nan nan nan 0 2 2 10 16 22 22 27 28 34 34 41 52 52 69 100 153 153 185 190
nan nan nan nan 0 0 1 3 6 6 9 25 23 23 22 26 26 31 23 44 44 76 69 55 47 47 57 70 76 76 63 42 38 38 42 56 56 58 51 57 57 65 64 40 23 23 20 18 16 16 13 8 2 2 nan 4 4 11 0 nan nan nan nan 2 2 2 4 2 4 4 2 1 2 2 nan nan nan nan nan nan nan nan nan 0 4 4 14 24 27 27 28 33 37 37 45 51 51 62 95 137 137 155 169
nan nan nan nan nan nan 1 2 5 5 11 34 25 25 20 29 29 33 31 46 46 76 71 55 39 39 45 61 57 57 43 37 55 55 64 62 62 64 73 60 60 32 43 27 20 20 17 12 17 17 20 22 14 14 12 10 10 5 nan nan nan nan nan 1 1 1 2 2 1 1 1 0 nan nan nan nan nan nan nan nan nan nan nan 0 4 4 15 25 28 28 25 25 32 32 34 41 41 55 80 127 127 136 136